Time,TemperatureF,DewpointF,PressureIn,WindDirection,WindDirectionDegrees,WindSpeedMPH,WindSpeedGustMPH,Humidity,HourlyPrecipIn,Conditions,Clouds,dailyrainin,SoftwareType,DateUTC
2013-06-04 00:00:00,53.4,49.3,30.14,WNW,293,0.7,1.6,86,0.00,,,0.00,WUHU21636XXSP,2013-06-03 22:00:00,
2013-06-04 00:05:00,53.4,49.3,30.14,WNW,293,2.2,2.2,86,0.00,,,0.00,WUHU21636XXSP,2013-06-03 22:05:00,
2013-06-04 00:10:00,53.4,49.3,30.14,WNW,293,1.6,2.2,86,0.00,,,0.00,WUHU21636XXSP,2013-06-03 22:10:00,
2013-06-04 00:15:00,53.4,49.3,30.14,NW,315,0.0,2.2,86,0.00,,,0.00,WUHU21636XXSP,2013-06-03 22:15:00,
2013-06-04 00:20:00,53.2,49.1,30.14,NW,315,4.7,4.7,86,0.00,,,0.00,WUHU21636XXSP,2013-06-03 22:20:00,
2013-06-04 00:25:00,53.4,49.0,30.14,NW,315,0.0,4.7,85,0.00,,,0.00,WUHU21636XXSP,2013-06-03 22:25:00,
2013-06-04 00:30:00,53.4,49.0,30.14,WNW,293,1.6,4.7,85,0.00,,,0.00,WUHU21636XXSP,2013-06-03 22:30:00,
2013-06-04 00:35:00,53.4,49.0,30.14,NW,315,0.0,1.6,85,0.00,,,0.00,WUHU21636XXSP,2013-06-03 22:35:00,
2013-06-04 00:40:00,53.4,49.0,30.14,WNW,293,1.8,1.8,85,0.00,,,0.00,WUHU21636XXSP,2013-06-03 22:40:00,
2013-06-04 00:45:00,53.2,48.8,30.13,NW,315,1.3,1.8,85,0.00,,,0.00,WUHU21636XXSP,2013-06-03 22:45:00,
2013-06-04 00:50:00,53.2,48.8,30.13,NW,315,1.3,1.8,85,0.00,,,0.00,WUHU21636XXSP,2013-06-03 22:50:00,
2013-06-04 00:55:00,53.2,48.8,30.13,NW,315,1.3,1.3,85,0.00,,,0.00,WUHU21636XXSP,2013-06-03 22:55:00,
2013-06-04 01:00:00,53.2,48.8,30.13,WNW,293,2.9,2.9,85,0.00,,,0.00,WUHU21636XXSP,2013-06-03 23:00:00,
2013-06-04 01:05:00,53.4,49.0,30.13,NW,315,2.2,2.9,85,0.00,,,0.00,WUHU21636XXSP,2013-06-03 23:05:00,
2013-06-04 01:10:00,53.4,49.0,30.13,NW,315,0.0,2.9,85,0.00,,,0.00,WUHU21636XXSP,2013-06-03 23:10:00,
2013-06-04 01:15:00,53.2,48.8,30.13,NW,315,0.0,2.2,85,0.00,,,0.00,WUHU21636XXSP,2013-06-03 23:15:00,
2013-06-04 01:20:00,53.2,48.8,30.13,NW,315,1.3,1.3,85,0.00,,,0.00,WUHU21636XXSP,2013-06-03 23:20:00,
2013-06-04 01:25:00,53.2,48.8,30.13,NW,315,0.7,1.3,85,0.00,,,0.00,WUHU21636XXSP,2013-06-03 23:25:00,
2013-06-04 01:30:00,53.2,48.8,30.13,NW,315,0.0,1.3,85,0.00,,,0.00,WUHU21636XXSP,2013-06-03 23:30:00,
2013-06-04 01:35:00,53.2,48.8,30.13,NW,315,0.0,0.7,85,0.00,,,0.00,WUHU21636XXSP,2013-06-03 23:35:00,
2013-06-04 01:40:00,53.2,48.8,30.14,NW,315,0.0,0.0,85,0.00,,,0.00,WUHU21636XXSP,2013-06-03 23:40:00,
2013-06-04 01:45:00,53.2,48.8,30.14,NW,315,0.0,0.0,85,0.00,,,0.00,WUHU21636XXSP,2013-06-03 23:45:00,
2013-06-04 01:50:00,53.1,48.7,30.14,NW,315,0.0,0.0,85,0.00,,,0.00,WUHU21636XXSP,2013-06-03 23:50:00,
2013-06-04 01:55:00,52.9,48.8,30.14,NW,315,0.0,0.0,86,0.00,,,0.00,WUHU21636XXSP,2013-06-03 23:55:00,
2013-06-04 02:00:00,52.9,48.8,30.14,NW,315,0.0,0.0,86,0.00,,,0.00,WUHU21636XXSP,2013-06-04 00:00:00,
2013-06-04 02:05:00,52.9,48.8,30.14,NW,315,0.0,0.0,86,0.00,,,0.00,WUHU21636XXSP,2013-06-04 00:05:00,
2013-06-04 02:10:00,52.7,48.6,30.14,NW,315,0.4,0.4,86,0.00,,,0.00,WUHU21636XXSP,2013-06-04 00:10:00,
2013-06-04 02:15:00,52.9,48.8,30.13,NW,315,0.0,0.4,86,0.00,,,0.00,WUHU21636XXSP,2013-06-04 00:15:00,
2013-06-04 02:20:00,52.7,48.6,30.13,NW,315,0.0,0.4,86,0.00,,,0.00,WUHU21636XXSP,2013-06-04 00:20:00,
2013-06-04 02:25:00,52.7,48.6,30.13,NW,315,0.0,0.0,86,0.00,,,0.00,WUHU21636XXSP,2013-06-04 00:25:00,
2013-06-04 02:30:00,52.7,48.6,30.13,NW,315,0.0,0.0,86,0.00,,,0.00,WUHU21636XXSP,2013-06-04 00:30:00,
2013-06-04 02:35:00,52.7,48.6,30.13,NW,315,0.0,0.0,86,0.00,,,0.00,WUHU21636XXSP,2013-06-04 00:35:00,
2013-06-04 02:40:00,52.7,48.6,30.13,NW,315,1.1,1.1,86,0.00,,,0.00,WUHU21636XXSP,2013-06-04 00:40:00,
2013-06-04 02:45:00,52.9,48.8,30.13,NW,315,0.0,1.1,86,0.00,,,0.00,WUHU21636XXSP,2013-06-04 00:45:00,
2013-06-04 02:50:00,52.9,48.8,30.13,NW,315,0.0,1.1,86,0.00,,,0.00,WUHU21636XXSP,2013-06-04 00:50:00,
2013-06-04 02:55:00,52.9,48.8,30.13,NW,315,1.3,1.3,86,0.00,,,0.00,WUHU21636XXSP,2013-06-04 00:55:00,
2013-06-04 03:00:00,52.9,48.8,30.12,WNW,293,0.0,1.3,86,0.00,,,0.00,WUHU21636XXSP,2013-06-04 01:00:00,
2013-06-04 03:05:00,53.1,49.0,30.12,NW,315,0.0,1.3,86,0.00,,,0.00,WUHU21636XXSP,2013-06-04 01:05:00,
2013-06-04 03:10:00,52.9,48.8,30.12,NW,315,0.0,0.0,86,0.00,,,0.00,WUHU21636XXSP,2013-06-04 01:10:00,
2013-06-04 03:15:00,52.9,48.8,30.12,NW,315,0.0,0.0,86,0.00,,,0.00,WUHU21636XXSP,2013-06-04 01:15:00,
2013-06-04 03:20:00,52.9,48.8,30.12,NW,315,0.0,0.0,86,0.00,,,0.00,WUHU21636XXSP,2013-06-04 01:20:00,
2013-06-04 03:25:00,52.7,48.6,30.11,NW,315,1.1,1.1,86,0.00,,,0.00,WUHU21636XXSP,2013-06-04 01:25:00,
2013-06-04 03:30:00,52.5,48.4,30.12,NW,315,0.0,1.1,86,0.00,,,0.00,WUHU21636XXSP,2013-06-04 01:30:00,
2013-06-04 03:35:00,52.5,48.4,30.11,NW,315,0.4,1.1,86,0.00,,,0.00,WUHU21636XXSP,2013-06-04 01:35:00,
2013-06-04 03:40:00,52.2,48.1,30.12,WNW,293,0.9,0.9,86,0.00,,,0.00,WUHU21636XXSP,2013-06-04 01:40:00,
2013-06-04 03:45:00,52.2,48.1,30.12,WNW,293,0.0,0.9,86,0.00,,,0.00,WUHU21636XXSP,2013-06-04 01:45:00,
2013-06-04 03:50:00,52.0,47.9,30.11,WNW,293,0.0,0.9,86,0.00,,,0.00,WUHU21636XXSP,2013-06-04 01:50:00,
2013-06-04 03:55:00,52.0,47.9,30.11,WNW,293,0.4,0.4,86,0.00,,,0.00,WUHU21636XXSP,2013-06-04 01:55:00,
2013-06-04 04:00:00,51.8,47.7,30.12,WNW,293,0.0,0.4,86,0.00,,,0.00,WUHU21636XXSP,2013-06-04 02:00:00,
2013-06-04 04:05:00,51.6,47.5,30.12,WNW,293,0.0,0.4,86,0.00,,,0.00,WUHU21636XXSP,2013-06-04 02:05:00,
2013-06-04 04:10:00,51.6,47.5,30.12,WNW,293,0.0,0.0,86,0.00,,,0.00,WUHU21636XXSP,2013-06-04 02:10:00,
2013-06-04 04:15:00,51.6,47.5,30.11,WNW,293,0.0,0.0,86,0.00,,,0.00,WUHU21636XXSP,2013-06-04 02:15:00,
2013-06-04 04:20:00,51.4,47.3,30.12,WNW,293,0.0,0.0,86,0.00,,,0.00,WUHU21636XXSP,2013-06-04 02:20:00,
2013-06-04 04:25:00,51.4,47.3,30.11,WNW,293,0.0,0.0,86,0.00,,,0.00,WUHU21636XXSP,2013-06-04 02:25:00,
2013-06-04 04:30:00,51.4,47.3,30.12,WNW,293,0.0,0.0,86,0.00,,,0.00,WUHU21636XXSP,2013-06-04 02:30:00,
2013-06-04 04:35:00,51.4,47.6,30.12,WNW,293,0.0,0.0,87,0.00,,,0.00,WUHU21636XXSP,2013-06-04 02:35:00,
2013-06-04 04:40:00,51.3,47.5,30.11,WNW,293,0.0,0.0,87,0.00,,,0.00,WUHU21636XXSP,2013-06-04 02:40:00,
2013-06-04 04:45:00,51.1,47.3,30.11,WNW,293,0.0,0.0,87,0.00,,,0.00,WUHU21636XXSP,2013-06-04 02:45:00,
2013-06-04 04:50:00,51.1,47.3,30.11,WNW,293,1.1,1.1,87,0.00,,,0.00,WUHU21636XXSP,2013-06-04 02:50:00,
2013-06-04 04:55:00,51.1,47.3,30.12,WNW,293,0.0,1.1,87,0.00,,,0.00,WUHU21636XXSP,2013-06-04 02:55:00,
2013-06-04 05:00:00,51.1,47.3,30.11,WNW,293,0.0,1.1,87,0.00,,,0.00,WUHU21636XXSP,2013-06-04 03:00:00,
2013-06-04 05:05:00,51.1,47.3,30.11,NW,315,0.0,0.0,87,0.00,,,0.00,WUHU21636XXSP,2013-06-04 03:05:00,
2013-06-04 05:10:00,51.3,47.8,30.11,WNW,293,0.0,0.0,88,0.00,,,0.00,WUHU21636XXSP,2013-06-04 03:10:00,
2013-06-04 05:15:00,51.4,47.9,30.11,NW,315,0.0,0.0,88,0.00,,,0.00,WUHU21636XXSP,2013-06-04 03:15:00,
2013-06-04 05:20:00,51.4,47.9,30.11,WNW,293,0.4,0.4,88,0.00,,,0.00,WUHU21636XXSP,2013-06-04 03:20:00,
2013-06-04 05:25:00,51.4,47.9,30.11,WNW,293,0.0,0.4,88,0.00,,,0.00,WUHU21636XXSP,2013-06-04 03:25:00,
2013-06-04 05:30:00,51.4,47.9,30.11,NW,315,1.1,1.1,88,0.00,,,0.00,WUHU21636XXSP,2013-06-04 03:30:00,
2013-06-04 05:35:00,51.4,47.9,30.11,WNW,293,0.0,1.1,88,0.00,,,0.00,WUHU21636XXSP,2013-06-04 03:35:00,
2013-06-04 05:40:00,51.4,47.9,30.11,NW,315,0.0,1.1,88,0.00,,,0.00,WUHU21636XXSP,2013-06-04 03:40:00,
2013-06-04 05:45:00,51.4,47.9,30.11,NW,315,0.0,0.0,88,0.00,,,0.00,WUHU21636XXSP,2013-06-04 03:45:00,
2013-06-04 05:50:00,51.4,47.9,30.11,WNW,293,0.0,0.0,88,0.00,,,0.00,WUHU21636XXSP,2013-06-04 03:50:00,
2013-06-04 05:55:00,51.4,47.9,30.11,NW,315,0.4,0.4,88,0.00,,,0.00,WUHU21636XXSP,2013-06-04 03:55:00,
2013-06-04 06:00:00,51.4,47.9,30.11,WNW,293,4.7,4.7,88,0.03,,,0.03,WUHU21636XXSP,2013-06-04 04:00:00,
2013-06-04 06:05:00,51.1,47.6,30.11,NW,315,3.6,4.7,88,0.03,,,0.03,WUHU21636XXSP,2013-06-04 04:05:00,
2013-06-04 06:10:00,51.1,47.6,30.11,WNW,293,2.0,4.7,88,0.03,,,0.03,WUHU21636XXSP,2013-06-04 04:10:00,
2013-06-04 06:15:00,51.1,47.9,30.11,WNW,293,0.0,3.6,89,0.03,,,0.03,WUHU21636XXSP,2013-06-04 04:15:00,
2013-06-04 06:20:00,50.9,47.7,30.11,WNW,293,0.0,2.0,89,0.05,,,0.05,WUHU21636XXSP,2013-06-04 04:20:00,
2013-06-04 06:25:00,50.9,47.7,30.12,WNW,293,0.0,0.0,89,0.05,,,0.05,WUHU21636XXSP,2013-06-04 04:25:00,
2013-06-04 06:30:00,50.7,47.5,30.12,WNW,293,0.0,0.0,89,0.05,,,0.05,WUHU21636XXSP,2013-06-04 04:30:00,
2013-06-04 06:35:00,50.7,47.5,30.12,NW,315,0.0,0.0,89,0.05,,,0.05,WUHU21636XXSP,2013-06-04 04:35:00,
2013-06-04 06:40:00,50.7,47.5,30.12,WNW,293,0.4,0.4,89,0.07,,,0.07,WUHU21636XXSP,2013-06-04 04:40:00,
2013-06-04 06:45:00,50.7,47.5,30.12,WNW,293,1.3,1.3,89,0.07,,,0.07,WUHU21636XXSP,2013-06-04 04:45:00,
2013-06-04 06:50:00,50.5,47.6,30.11,WNW,293,0.0,1.3,90,0.07,,,0.07,WUHU21636XXSP,2013-06-04 04:50:00,
2013-06-04 06:55:00,50.5,47.6,30.11,NW,315,0.0,1.3,90,0.06,,,0.09,WUHU21636XXSP,2013-06-04 04:55:00,
2013-06-04 07:00:00,50.5,47.6,30.11,NW,315,0.4,0.4,90,0.06,,,0.09,WUHU21636XXSP,2013-06-04 05:00:00,
2013-06-04 07:05:00,50.5,47.6,30.11,NW,315,2.7,2.7,90,0.06,,,0.09,WUHU21636XXSP,2013-06-04 05:05:00,
2013-06-04 07:10:00,50.7,47.8,30.11,NW,315,0.0,2.7,90,0.06,,,0.09,WUHU21636XXSP,2013-06-04 05:10:00,
2013-06-04 07:15:00,50.7,47.8,30.11,NW,315,0.0,2.7,90,0.04,,,0.09,WUHU21636XXSP,2013-06-04 05:15:00,
2013-06-04 07:20:00,50.9,48.3,30.11,NW,315,0.4,0.4,91,0.04,,,0.09,WUHU21636XXSP,2013-06-04 05:20:00,
2013-06-04 07:25:00,51.1,48.5,30.11,NW,315,0.0,0.4,91,0.04,,,0.09,WUHU21636XXSP,2013-06-04 05:25:00,
2013-06-04 07:30:00,51.1,48.5,30.11,WNW,293,3.1,3.1,91,0.04,,,0.09,WUHU21636XXSP,2013-06-04 05:30:00,
2013-06-04 07:35:00,51.3,48.7,30.11,NW,315,0.0,3.1,91,0.02,,,0.09,WUHU21636XXSP,2013-06-04 05:35:00,
2013-06-04 07:40:00,51.4,48.8,30.11,WNW,293,0.0,3.1,91,0.02,,,0.09,WUHU21636XXSP,2013-06-04 05:40:00,
2013-06-04 07:45:00,51.4,48.8,30.11,NW,315,2.5,2.5,91,0.02,,,0.09,WUHU21636XXSP,2013-06-04 05:45:00,
2013-06-04 07:50:00,51.4,48.8,30.11,NW,315,0.0,2.5,91,0.00,,,0.09,WUHU21636XXSP,2013-06-04 05:50:00,
2013-06-04 07:55:00,51.4,48.8,30.11,NW,315,2.7,2.7,91,0.00,,,0.09,WUHU21636XXSP,2013-06-04 05:55:00,
2013-06-04 08:00:00,51.6,49.0,30.11,WNW,293,2.5,2.7,91,0.00,,,0.09,WUHU21636XXSP,2013-06-04 06:00:00,
2013-06-04 08:05:00,51.8,49.2,30.11,NW,315,2.0,2.7,91,0.00,,,0.09,WUHU21636XXSP,2013-06-04 06:05:00,
2013-06-04 08:10:00,52.0,49.4,30.11,WNW,293,2.5,2.5,91,0.00,,,0.09,WUHU21636XXSP,2013-06-04 06:10:00,
2013-06-04 08:15:00,52.0,49.4,30.11,WNW,293,4.5,4.5,91,0.00,,,0.09,WUHU21636XXSP,2013-06-04 06:15:00,
2013-06-04 08:20:00,52.3,49.7,30.11,WNW,293,3.6,4.5,91,0.00,,,0.09,WUHU21636XXSP,2013-06-04 06:20:00,
2013-06-04 08:25:00,52.5,49.9,30.11,WNW,293,1.8,4.5,91,0.00,,,0.09,WUHU21636XXSP,2013-06-04 06:25:00,
2013-06-04 08:30:00,52.7,50.1,30.11,WNW,293,2.7,3.6,91,0.00,,,0.09,WUHU21636XXSP,2013-06-04 06:30:00,
2013-06-04 08:35:00,52.9,50.3,30.11,WNW,293,0.0,2.7,91,0.00,,,0.09,WUHU21636XXSP,2013-06-04 06:35:00,
2013-06-04 08:40:00,53.4,50.8,30.10,NNE,23,0.0,2.7,91,0.00,,,0.09,WUHU21636XXSP,2013-06-04 06:40:00,
2013-06-04 08:45:00,53.8,51.2,30.11,NW,315,4.3,4.3,91,0.00,,,0.09,WUHU21636XXSP,2013-06-04 06:45:00,
2013-06-04 08:50:00,54.0,51.1,30.10,WNW,293,3.4,4.3,90,0.00,,,0.09,WUHU21636XXSP,2013-06-04 06:50:00,
2013-06-04 08:55:00,54.3,51.4,30.11,NW,315,6.7,7.6,90,0.00,,,0.09,WUHU21636XXSP,2013-06-04 06:55:00,
2013-06-04 09:00:00,54.7,51.5,30.10,NW,315,6.9,8.1,89,0.00,,,0.09,WUHU21636XXSP,2013-06-04 07:00:00,
2013-06-04 09:05:00,54.7,51.5,30.10,NW,315,2.7,8.1,89,0.00,,,0.09,WUHU21636XXSP,2013-06-04 07:05:00,
2013-06-04 09:10:00,55.0,51.2,30.10,NW,315,4.9,8.1,87,0.00,,,0.09,WUHU21636XXSP,2013-06-04 07:10:00,
2013-06-04 09:15:00,55.2,51.4,30.10,NW,315,0.0,4.9,87,0.00,,,0.09,WUHU21636XXSP,2013-06-04 07:15:00,
2013-06-04 09:20:00,55.6,51.8,30.10,WNW,293,1.3,4.9,87,0.00,,,0.09,WUHU21636XXSP,2013-06-04 07:20:00,
2013-06-04 09:25:00,55.9,51.8,30.10,WNW,293,0.7,1.3,86,0.00,,,0.09,WUHU21636XXSP,2013-06-04 07:25:00,
2013-06-04 09:30:00,56.1,52.0,30.10,NW,315,0.9,1.3,86,0.00,,,0.09,WUHU21636XXSP,2013-06-04 07:30:00,
2013-06-04 09:35:00,56.5,52.0,30.10,WNW,293,0.0,0.9,85,0.00,,,0.09,WUHU21636XXSP,2013-06-04 07:35:00,
2013-06-04 09:40:00,56.8,52.3,30.10,WNW,293,0.0,0.9,85,0.00,,,0.09,WUHU21636XXSP,2013-06-04 07:40:00,
2013-06-04 09:45:00,56.8,52.0,30.10,WNW,293,4.7,4.7,84,0.00,,,0.09,WUHU21636XXSP,2013-06-04 07:45:00,
2013-06-04 09:50:00,57.0,52.2,30.10,WNW,293,0.0,4.7,84,0.00,,,0.09,WUHU21636XXSP,2013-06-04 07:50:00,
2013-06-04 09:55:00,57.7,52.6,30.10,WNW,293,5.4,5.4,83,0.00,,,0.09,WUHU21636XXSP,2013-06-04 07:55:00,
2013-06-04 10:00:00,57.9,51.5,30.10,NW,315,0.4,5.4,79,0.00,,,0.09,WUHU21636XXSP,2013-06-04 08:00:00,
2013-06-04 10:05:00,57.9,52.1,30.10,NE,45,0.7,5.4,81,0.00,,,0.09,WUHU21636XXSP,2013-06-04 08:05:00,
2013-06-04 10:10:00,58.3,52.2,30.10,WNW,293,0.0,0.7,80,0.00,,,0.09,WUHU21636XXSP,2013-06-04 08:10:00,
2013-06-04 10:15:00,58.5,52.1,30.09,WNW,293,2.7,2.7,79,0.00,,,0.09,WUHU21636XXSP,2013-06-04 08:15:00,
2013-06-04 10:20:00,58.6,52.2,30.10,WNW,293,1.1,2.7,79,0.00,,,0.09,WUHU21636XXSP,2013-06-04 08:20:00,
2013-06-04 10:25:00,58.6,52.5,30.10,WNW,293,0.0,2.7,80,0.00,,,0.09,WUHU21636XXSP,2013-06-04 08:25:00,
2013-06-04 10:30:00,58.8,52.7,30.10,WNW,293,2.9,2.9,80,0.00,,,0.09,WUHU21636XXSP,2013-06-04 08:30:00,
2013-06-04 10:35:00,59.0,52.2,30.09,WNW,293,0.9,2.9,78,0.00,,,0.09,WUHU21636XXSP,2013-06-04 08:35:00,
2013-06-04 10:40:00,59.2,52.1,30.09,WNW,293,2.2,2.9,77,0.00,,,0.09,WUHU21636XXSP,2013-06-04 08:40:00,
2013-06-04 10:45:00,59.2,52.4,30.09,WNW,293,0.4,2.2,78,0.00,,,0.09,WUHU21636XXSP,2013-06-04 08:45:00,
2013-06-04 10:50:00,59.4,52.3,30.09,WNW,293,1.1,2.2,77,0.00,,,0.09,WUHU21636XXSP,2013-06-04 08:50:00,
2013-06-04 10:55:00,59.4,52.6,30.09,WNW,293,1.3,1.3,78,0.00,,,0.09,WUHU21636XXSP,2013-06-04 08:55:00,
2013-06-04 11:00:00,59.2,52.1,30.10,WNW,293,3.1,3.1,77,0.00,,,0.09,WUHU21636XXSP,2013-06-04 09:00:00,
2013-06-04 11:05:00,59.2,52.1,30.10,WNW,293,0.7,3.1,77,0.00,,,0.09,WUHU21636XXSP,2013-06-04 09:05:00,
2013-06-04 11:10:00,58.8,51.3,30.10,WNW,293,0.0,3.1,76,0.00,,,0.09,WUHU21636XXSP,2013-06-04 09:10:00,
2013-06-04 11:15:00,58.8,51.7,30.10,WNW,293,0.0,0.7,77,0.00,,,0.09,WUHU21636XXSP,2013-06-04 09:15:00,
2013-06-04 11:20:00,59.2,52.1,30.10,WNW,293,0.0,0.0,77,0.00,,,0.09,WUHU21636XXSP,2013-06-04 09:20:00,
2013-06-04 11:25:00,59.4,51.6,30.10,NW,315,0.0,0.0,75,0.00,,,0.09,WUHU21636XXSP,2013-06-04 09:25:00,
2013-06-04 11:30:00,59.5,52.0,30.10,WNW,293,0.7,0.7,76,0.00,,,0.09,WUHU21636XXSP,2013-06-04 09:30:00,
2013-06-04 11:35:00,59.7,51.9,30.10,WNW,293,1.1,1.1,75,0.00,,,0.09,WUHU21636XXSP,2013-06-04 09:35:00,
2013-06-04 11:40:00,59.9,51.7,30.11,WNW,293,1.6,1.6,74,0.00,,,0.09,WUHU21636XXSP,2013-06-04 09:40:00,
2013-06-04 11:45:00,59.4,51.6,30.10,WNW,293,0.9,1.6,75,0.00,,,0.09,WUHU21636XXSP,2013-06-04 09:45:00,
2013-06-04 11:50:00,59.2,51.4,30.10,WNW,293,3.6,3.6,75,0.00,,,0.09,WUHU21636XXSP,2013-06-04 09:50:00,
2013-06-04 11:55:00,58.8,51.7,30.10,NW,315,0.0,3.6,77,0.00,,,0.09,WUHU21636XXSP,2013-06-04 09:55:00,
2013-06-04 12:00:00,58.6,51.5,30.10,WNW,293,1.8,3.6,77,0.00,,,0.09,WUHU21636XXSP,2013-06-04 10:00:00,
2013-06-04 12:05:00,58.1,51.7,30.10,WNW,293,0.0,1.8,79,0.00,,,0.09,WUHU21636XXSP,2013-06-04 10:05:00,
2013-06-04 12:10:00,58.3,52.2,30.10,WNW,293,2.9,2.9,80,0.00,,,0.09,WUHU21636XXSP,2013-06-04 10:10:00,
2013-06-04 12:15:00,58.6,52.5,30.10,WNW,293,2.9,2.9,80,0.00,,,0.09,WUHU21636XXSP,2013-06-04 10:15:00,
2013-06-04 12:20:00,58.8,52.0,30.10,WNW,293,1.1,2.9,78,0.00,,,0.09,WUHU21636XXSP,2013-06-04 10:20:00,
2013-06-04 12:25:00,59.9,52.4,30.10,WNW,293,0.7,2.9,76,0.00,,,0.09,WUHU21636XXSP,2013-06-04 10:25:00,
2013-06-04 12:30:00,60.6,51.7,30.10,WNW,293,3.4,3.4,72,0.00,,,0.09,WUHU21636XXSP,2013-06-04 10:30:00,
2013-06-04 12:35:00,61.0,51.7,30.10,WNW,293,2.7,3.4,71,0.00,,,0.09,WUHU21636XXSP,2013-06-04 10:35:00,
2013-06-04 12:40:00,61.0,52.4,30.10,SSW,203,0.0,3.4,73,0.00,,,0.09,WUHU21636XXSP,2013-06-04 10:40:00,
2013-06-04 12:45:00,60.6,50.1,30.10,WNW,293,5.6,5.6,68,0.00,,,0.09,WUHU21636XXSP,2013-06-04 10:45:00,
2013-06-04 12:50:00,60.6,50.9,30.10,WNW,293,1.3,5.6,70,0.00,,,0.09,WUHU21636XXSP,2013-06-04 10:50:00,
2013-06-04 12:55:00,60.6,51.3,30.10,WNW,293,0.0,5.6,71,0.00,,,0.09,WUHU21636XXSP,2013-06-04 10:55:00,
2013-06-04 13:00:00,61.3,52.3,30.09,WNW,293,2.9,2.9,72,0.00,,,0.09,WUHU21636XXSP,2013-06-04 11:00:00,
2013-06-04 13:05:00,61.9,52.2,30.09,WNW,293,4.3,4.3,70,0.00,,,0.09,WUHU21636XXSP,2013-06-04 11:05:00,
2013-06-04 13:10:00,62.2,52.4,30.09,WNW,293,0.0,4.3,70,0.00,,,0.09,WUHU21636XXSP,2013-06-04 11:10:00,
2013-06-04 13:15:00,62.8,52.6,30.09,NW,315,0.0,4.3,69,0.00,,,0.09,WUHU21636XXSP,2013-06-04 11:15:00,
2013-06-04 13:20:00,63.5,53.7,30.09,NNE,23,2.0,2.0,70,0.00,,,0.09,WUHU21636XXSP,2013-06-04 11:20:00,
2013-06-04 13:25:00,63.7,52.7,30.09,WNW,293,4.0,4.0,67,0.00,,,0.09,WUHU21636XXSP,2013-06-04 11:25:00,
2013-06-04 13:30:00,63.3,53.5,30.09,NW,315,0.0,4.0,70,0.00,,,0.09,WUHU21636XXSP,2013-06-04 11:30:00,
2013-06-04 13:35:00,63.7,53.1,30.09,WNW,293,0.0,4.0,68,0.00,,,0.09,WUHU21636XXSP,2013-06-04 11:35:00,
2013-06-04 13:40:00,63.7,53.5,30.09,WNW,293,0.0,0.0,69,0.00,,,0.09,WUHU21636XXSP,2013-06-04 11:40:00,
2013-06-04 13:45:00,64.0,53.4,30.08,WNW,293,4.0,4.0,68,0.00,,,0.09,WUHU21636XXSP,2013-06-04 11:45:00,
2013-06-04 13:50:00,64.0,53.8,30.08,North,0,0.4,4.0,69,0.00,,,0.09,WUHU21636XXSP,2013-06-04 11:50:00,
2013-06-04 13:55:00,64.9,54.2,30.08,WNW,293,0.4,4.0,68,0.00,,,0.09,WUHU21636XXSP,2013-06-04 11:55:00,
2013-06-04 14:00:00,65.1,54.0,30.08,WNW,293,2.5,2.5,67,0.00,,,0.09,WUHU21636XXSP,2013-06-04 12:00:00,
2013-06-04 14:05:00,64.6,53.1,30.08,WNW,293,1.3,2.5,66,0.00,,,0.09,WUHU21636XXSP,2013-06-04 12:05:00,
2013-06-04 14:10:00,64.0,53.4,30.08,WNW,293,0.0,2.5,68,0.00,,,0.09,WUHU21636XXSP,2013-06-04 12:10:00,
2013-06-04 14:15:00,63.3,52.7,30.08,WSW,248,0.0,1.3,68,0.00,,,0.09,WUHU21636XXSP,2013-06-04 12:15:00,
2013-06-04 14:20:00,62.8,53.4,30.08,SW,225,0.4,0.4,71,0.00,,,0.09,WUHU21636XXSP,2013-06-04 12:20:00,
2013-06-04 14:25:00,63.0,53.2,30.08,West,270,1.3,1.3,70,0.00,,,0.09,WUHU21636XXSP,2013-06-04 12:25:00,
2013-06-04 14:30:00,64.0,53.8,30.08,West,270,1.3,1.3,69,0.00,,,0.09,WUHU21636XXSP,2013-06-04 12:30:00,
2013-06-04 14:35:00,64.0,53.8,30.08,WNW,293,0.4,1.3,69,0.00,,,0.09,WUHU21636XXSP,2013-06-04 12:35:00,
2013-06-04 14:40:00,63.7,53.5,30.08,WNW,293,1.3,1.3,69,0.00,,,0.09,WUHU21636XXSP,2013-06-04 12:40:00,
2013-06-04 14:45:00,64.0,53.8,30.08,WNW,293,1.1,1.3,69,0.00,,,0.09,WUHU21636XXSP,2013-06-04 12:45:00,
2013-06-04 14:50:00,63.9,53.7,30.08,WNW,293,2.5,2.5,69,0.00,,,0.09,WUHU21636XXSP,2013-06-04 12:50:00,
2013-06-04 14:55:00,64.0,54.2,30.08,WNW,293,0.0,2.5,70,0.00,,,0.09,WUHU21636XXSP,2013-06-04 12:55:00,
2013-06-04 15:00:00,65.1,54.4,30.08,WNW,293,2.7,2.7,68,0.00,,,0.09,WUHU21636XXSP,2013-06-04 13:00:00,
2013-06-04 15:05:00,64.9,53.8,30.08,NW,315,3.4,3.4,67,0.00,,,0.09,WUHU21636XXSP,2013-06-04 13:05:00,
2013-06-04 15:10:00,64.2,53.2,30.08,WNW,293,0.0,3.4,67,0.00,,,0.09,WUHU21636XXSP,2013-06-04 13:10:00,
2013-06-04 15:15:00,64.0,53.0,30.08,WNW,293,0.0,3.4,67,0.00,,,0.09,WUHU21636XXSP,2013-06-04 13:15:00,
2013-06-04 15:20:00,64.0,53.4,30.08,WNW,293,1.8,1.8,68,0.00,,,0.09,WUHU21636XXSP,2013-06-04 13:20:00,
2013-06-04 15:25:00,63.7,52.7,30.08,ESE,113,2.5,2.5,67,0.00,,,0.09,WUHU21636XXSP,2013-06-04 13:25:00,
2013-06-04 15:30:00,63.1,53.3,30.08,WNW,293,4.5,4.5,70,0.00,,,0.09,WUHU21636XXSP,2013-06-04 13:30:00,
2013-06-04 15:35:00,62.8,52.2,30.08,NW,315,0.7,4.5,68,0.00,,,0.09,WUHU21636XXSP,2013-06-04 13:35:00,
2013-06-04 15:40:00,63.0,52.4,30.09,SW,225,0.0,4.5,68,0.00,,,0.09,WUHU21636XXSP,2013-06-04 13:40:00,
2013-06-04 15:45:00,62.4,52.6,30.09,WNW,293,1.6,1.6,70,0.00,,,0.09,WUHU21636XXSP,2013-06-04 13:45:00,
2013-06-04 15:50:00,61.9,52.5,30.09,NW,315,1.3,1.6,71,0.00,,,0.09,WUHU21636XXSP,2013-06-04 13:50:00,
2013-06-04 15:55:00,61.7,52.3,30.09,WNW,293,1.3,1.6,71,0.00,,,0.09,WUHU21636XXSP,2013-06-04 13:55:00,
2013-06-04 16:00:00,61.3,52.3,30.09,WNW,293,4.0,4.0,72,0.00,,,0.09,WUHU21636XXSP,2013-06-04 14:00:00,
2013-06-04 16:05:00,61.0,52.4,30.09,WNW,293,0.0,4.0,73,0.00,,,0.09,WUHU21636XXSP,2013-06-04 14:05:00,
2013-06-04 16:10:00,60.6,52.0,30.09,NW,315,4.0,4.0,73,0.00,,,0.09,WUHU21636XXSP,2013-06-04 14:10:00,
2013-06-04 16:15:00,60.6,52.4,30.09,WNW,293,0.4,4.0,74,0.00,,,0.09,WUHU21636XXSP,2013-06-04 14:15:00,
2013-06-04 16:20:00,60.4,52.5,30.09,WNW,293,2.0,4.0,75,0.00,,,0.09,WUHU21636XXSP,2013-06-04 14:20:00,
2013-06-04 16:25:00,60.3,52.8,30.09,NW,315,0.9,2.0,76,0.00,,,0.09,WUHU21636XXSP,2013-06-04 14:25:00,
2013-06-04 16:30:00,60.4,53.2,30.09,ESE,113,1.3,2.0,77,0.00,,,0.09,WUHU21636XXSP,2013-06-04 14:30:00,
2013-06-04 16:35:00,60.3,52.8,30.09,WNW,293,0.0,1.3,76,0.00,,,0.09,WUHU21636XXSP,2013-06-04 14:35:00,
2013-06-04 16:40:00,60.1,53.3,30.09,NW,315,0.0,1.3,78,0.00,,,0.09,WUHU21636XXSP,2013-06-04 14:40:00,
2013-06-04 16:45:00,59.7,52.9,30.10,NW,315,1.8,1.8,78,0.00,,,0.09,WUHU21636XXSP,2013-06-04 14:45:00,
2013-06-04 16:50:00,59.7,52.9,30.10,NW,315,2.0,2.0,78,0.00,,,0.09,WUHU21636XXSP,2013-06-04 14:50:00,
2013-06-04 16:55:00,59.5,53.0,30.10,NW,315,0.0,2.0,79,0.00,,,0.09,WUHU21636XXSP,2013-06-04 14:55:00,
2013-06-04 17:00:00,59.5,53.0,30.10,NW,315,0.0,2.0,79,0.00,,,0.09,WUHU21636XXSP,2013-06-04 15:00:00,
2013-06-04 17:05:00,59.4,52.9,30.10,NW,315,0.0,0.0,79,0.00,,,0.09,WUHU21636XXSP,2013-06-04 15:05:00,
2013-06-04 17:10:00,59.2,52.8,30.10,NW,315,1.3,1.3,79,0.00,,,0.09,WUHU21636XXSP,2013-06-04 15:10:00,
2013-06-04 17:15:00,58.8,52.4,30.10,NNW,338,0.0,1.3,79,0.00,,,0.09,WUHU21636XXSP,2013-06-04 15:15:00,
2013-06-04 17:20:00,58.6,52.8,30.10,WNW,293,0.0,1.3,81,0.00,,,0.09,WUHU21636XXSP,2013-06-04 15:20:00,
2013-06-04 17:25:00,58.6,52.5,30.10,NNW,338,0.0,0.0,80,0.00,,,0.09,WUHU21636XXSP,2013-06-04 15:25:00,
2013-06-04 17:30:00,58.6,52.5,30.10,NW,315,3.4,3.4,80,0.00,,,0.09,WUHU21636XXSP,2013-06-04 15:30:00,
2013-06-04 17:35:00,58.6,52.8,30.10,NNW,338,1.8,3.4,81,0.00,,,0.09,WUHU21636XXSP,2013-06-04 15:35:00,
2013-06-04 17:40:00,58.6,52.8,30.10,NW,315,2.0,3.4,81,0.00,,,0.09,WUHU21636XXSP,2013-06-04 15:40:00,
2013-06-04 17:45:00,58.8,53.0,30.10,NW,315,0.0,2.0,81,0.00,,,0.09,WUHU21636XXSP,2013-06-04 15:45:00,
2013-06-04 17:50:00,58.8,53.0,30.10,NW,315,0.0,2.0,81,0.00,,,0.09,WUHU21636XXSP,2013-06-04 15:50:00,
2013-06-04 17:55:00,59.0,53.2,30.10,NW,315,2.5,2.5,81,0.00,,,0.09,WUHU21636XXSP,2013-06-04 15:55:00,
2013-06-04 18:00:00,59.0,53.2,30.10,NW,315,3.1,3.1,81,0.00,,,0.09,WUHU21636XXSP,2013-06-04 16:00:00,
2013-06-04 18:05:00,58.8,53.0,30.10,NW,315,0.0,3.1,81,0.00,,,0.09,WUHU21636XXSP,2013-06-04 16:05:00,
2013-06-04 18:10:00,58.8,53.0,30.10,North,0,0.4,3.1,81,0.00,,,0.09,WUHU21636XXSP,2013-06-04 16:10:00,
2013-06-04 18:15:00,58.8,53.0,30.10,NW,315,0.0,0.4,81,0.00,,,0.09,WUHU21636XXSP,2013-06-04 16:15:00,
2013-06-04 18:20:00,58.8,53.0,30.10,SSW,203,0.0,0.4,81,0.00,,,0.09,WUHU21636XXSP,2013-06-04 16:20:00,
2013-06-04 18:25:00,59.0,53.2,30.10,WNW,293,0.0,0.0,81,0.00,,,0.09,WUHU21636XXSP,2013-06-04 16:25:00,
2013-06-04 18:30:00,59.2,53.4,30.10,NW,315,1.3,1.3,81,0.00,,,0.09,WUHU21636XXSP,2013-06-04 16:30:00,
2013-06-04 18:35:00,59.2,53.4,30.09,WNW,293,0.0,1.3,81,0.00,,,0.09,WUHU21636XXSP,2013-06-04 16:35:00,
2013-06-04 18:40:00,59.2,53.4,30.10,NW,315,0.0,1.3,81,0.00,,,0.09,WUHU21636XXSP,2013-06-04 16:40:00,
2013-06-04 18:45:00,59.2,53.4,30.10,WNW,293,1.8,1.8,81,0.00,,,0.09,WUHU21636XXSP,2013-06-04 16:45:00,
2013-06-04 18:50:00,59.2,53.4,30.10,WNW,293,0.0,1.8,81,0.00,,,0.09,WUHU21636XXSP,2013-06-04 16:50:00,
2013-06-04 18:55:00,59.2,53.4,30.10,NNW,338,0.0,1.8,81,0.00,,,0.09,WUHU21636XXSP,2013-06-04 16:55:00,
2013-06-04 19:00:00,59.4,53.9,30.10,NNW,338,0.0,0.0,82,0.00,,,0.09,WUHU21636XXSP,2013-06-04 17:00:00,
2013-06-04 19:05:00,59.4,53.9,30.10,NNW,338,0.0,0.0,82,0.00,,,0.09,WUHU21636XXSP,2013-06-04 17:05:00,
2013-06-04 19:10:00,59.5,54.0,30.10,NW,315,0.0,0.0,82,0.00,,,0.09,WUHU21636XXSP,2013-06-04 17:10:00,
2013-06-04 19:15:00,59.7,54.2,30.10,NW,315,0.0,0.0,82,0.00,,,0.09,WUHU21636XXSP,2013-06-04 17:15:00,
2013-06-04 19:20:00,59.7,54.2,30.10,NW,315,0.0,0.0,82,0.00,,,0.09,WUHU21636XXSP,2013-06-04 17:20:00,
2013-06-04 19:25:00,59.7,54.2,30.10,NW,315,0.0,0.0,82,0.00,,,0.09,WUHU21636XXSP,2013-06-04 17:25:00,
2013-06-04 19:30:00,59.7,53.9,30.10,ENE,68,0.0,0.0,81,0.00,,,0.09,WUHU21636XXSP,2013-06-04 17:30:00,
2013-06-04 19:35:00,59.9,54.4,30.10,ENE,68,0.0,0.0,82,0.00,,,0.09,WUHU21636XXSP,2013-06-04 17:35:00,
2013-06-04 19:40:00,59.9,54.1,30.10,WNW,293,0.0,0.0,81,0.00,,,0.09,WUHU21636XXSP,2013-06-04 17:40:00,
2013-06-04 19:45:00,60.1,54.3,30.10,WNW,293,0.0,0.0,81,0.00,,,0.09,WUHU21636XXSP,2013-06-04 17:45:00,
2013-06-04 19:50:00,60.6,54.8,30.10,WNW,293,0.0,0.0,81,0.00,,,0.09,WUHU21636XXSP,2013-06-04 17:50:00,
2013-06-04 19:55:00,61.2,55.0,30.10,WNW,293,0.0,0.0,80,0.00,,,0.09,WUHU21636XXSP,2013-06-04 17:55:00,
2013-06-04 20:00:00,61.3,55.1,30.09,WNW,293,0.0,0.0,80,0.00,,,0.09,WUHU21636XXSP,2013-06-04 18:00:00,
2013-06-04 20:05:00,61.3,54.8,30.10,WNW,293,0.0,0.0,79,0.00,,,0.09,WUHU21636XXSP,2013-06-04 18:05:00,
2013-06-04 20:10:00,61.5,55.0,30.09,WNW,293,0.0,0.0,79,0.00,,,0.09,WUHU21636XXSP,2013-06-04 18:10:00,
2013-06-04 20:15:00,61.7,55.2,30.09,NW,315,0.0,0.0,79,0.00,,,0.09,WUHU21636XXSP,2013-06-04 18:15:00,
2013-06-04 20:20:00,61.7,55.2,30.10,NW,315,0.0,0.0,79,0.00,,,0.09,WUHU21636XXSP,2013-06-04 18:20:00,
2013-06-04 20:25:00,61.5,55.0,30.10,NW,315,0.4,0.4,79,0.00,,,0.09,WUHU21636XXSP,2013-06-04 18:25:00,
2013-06-04 20:30:00,61.3,54.8,30.10,NW,315,0.0,0.4,79,0.00,,,0.09,WUHU21636XXSP,2013-06-04 18:30:00,
2013-06-04 20:35:00,61.2,54.7,30.10,WNW,293,2.2,2.2,79,0.00,,,0.09,WUHU21636XXSP,2013-06-04 18:35:00,
2013-06-04 20:40:00,60.8,54.3,30.10,WNW,293,2.0,2.2,79,0.00,,,0.09,WUHU21636XXSP,2013-06-04 18:40:00,
2013-06-04 20:45:00,60.4,54.3,30.09,WNW,293,2.5,2.5,80,0.00,,,0.09,WUHU21636XXSP,2013-06-04 18:45:00,
2013-06-04 20:50:00,60.1,54.0,30.10,NW,315,0.0,2.5,80,0.00,,,0.09,WUHU21636XXSP,2013-06-04 18:50:00,
2013-06-04 20:55:00,59.5,53.4,30.10,NW,315,1.3,2.5,80,0.00,,,0.09,WUHU21636XXSP,2013-06-04 18:55:00,
2013-06-04 21:00:00,59.2,53.4,30.10,NW,315,1.6,1.6,81,0.00,,,0.09,WUHU21636XXSP,2013-06-04 19:00:00,
2013-06-04 21:05:00,58.8,53.0,30.10,WNW,293,0.9,1.6,81,0.00,,,0.09,WUHU21636XXSP,2013-06-04 19:05:00,
2013-06-04 21:10:00,58.6,52.8,30.11,WNW,293,0.0,1.6,81,0.00,,,0.09,WUHU21636XXSP,2013-06-04 19:10:00,
2013-06-04 21:15:00,58.3,52.9,30.11,WNW,293,0.0,0.9,82,0.00,,,0.09,WUHU21636XXSP,2013-06-04 19:15:00,
2013-06-04 21:20:00,57.9,52.5,30.11,WNW,293,0.0,0.0,82,0.00,,,0.09,WUHU21636XXSP,2013-06-04 19:20:00,
2013-06-04 21:25:00,57.7,52.6,30.11,WNW,293,0.0,0.0,83,0.00,,,0.09,WUHU21636XXSP,2013-06-04 19:25:00,
2013-06-04 21:30:00,57.4,52.3,30.11,WNW,293,0.4,0.4,83,0.00,,,0.09,WUHU21636XXSP,2013-06-04 19:30:00,
2013-06-04 21:35:00,57.4,52.3,30.11,WNW,293,0.4,0.4,83,0.00,,,0.09,WUHU21636XXSP,2013-06-04 19:35:00,
2013-06-04 21:40:00,57.0,52.2,30.11,WNW,293,0.7,0.7,84,0.00,,,0.09,WUHU21636XXSP,2013-06-04 19:40:00,
2013-06-04 21:45:00,57.0,52.2,30.11,WNW,293,1.1,1.1,84,0.00,,,0.09,WUHU21636XXSP,2013-06-04 19:45:00,
2013-06-04 21:50:00,56.8,52.0,30.11,WNW,293,0.0,1.1,84,0.00,,,0.09,WUHU21636XXSP,2013-06-04 19:50:00,
2013-06-04 21:55:00,56.7,52.2,30.11,WNW,293,1.3,1.3,85,0.00,,,0.09,WUHU21636XXSP,2013-06-04 19:55:00,
2013-06-04 22:00:00,56.5,52.0,30.11,NW,315,1.8,1.8,85,0.00,,,0.09,WUHU21636XXSP,2013-06-04 20:00:00,
2013-06-04 22:05:00,56.3,51.8,30.11,WNW,293,2.2,2.2,85,0.00,,,0.09,WUHU21636XXSP,2013-06-04 20:05:00,
2013-06-04 22:10:00,56.1,51.7,30.11,WNW,293,1.8,2.2,85,0.00,,,0.09,WUHU21636XXSP,2013-06-04 20:10:00,
2013-06-04 22:15:00,55.9,51.8,30.11,NW,315,2.5,2.5,86,0.00,,,0.09,WUHU21636XXSP,2013-06-04 20:15:00,
2013-06-04 22:20:00,55.9,51.8,30.11,WNW,293,5.4,5.4,86,0.00,,,0.09,WUHU21636XXSP,2013-06-04 20:20:00,
2013-06-04 22:25:00,55.8,51.7,30.11,WNW,293,3.8,5.4,86,0.00,,,0.09,WUHU21636XXSP,2013-06-04 20:25:00,
2013-06-04 22:30:00,55.6,51.8,30.12,WNW,293,1.1,5.4,87,0.00,,,0.09,WUHU21636XXSP,2013-06-04 20:30:00,
2013-06-04 22:35:00,55.6,51.8,30.12,NW,315,0.0,3.8,87,0.00,,,0.09,WUHU21636XXSP,2013-06-04 20:35:00,
2013-06-04 22:40:00,55.2,51.4,30.12,NW,315,0.0,1.1,87,0.00,,,0.09,WUHU21636XXSP,2013-06-04 20:40:00,
2013-06-04 22:45:00,55.2,51.4,30.12,WNW,293,2.2,2.2,87,0.00,,,0.09,WUHU21636XXSP,2013-06-04 20:45:00,
2013-06-04 22:50:00,55.2,51.7,30.11,WNW,293,0.9,2.2,88,0.00,,,0.09,WUHU21636XXSP,2013-06-04 20:50:00,
2013-06-04 22:55:00,55.0,51.5,30.12,WNW,293,0.0,2.2,88,0.00,,,0.09,WUHU21636XXSP,2013-06-04 20:55:00,
2013-06-04 23:00:00,55.0,51.5,30.12,WNW,293,3.1,3.1,88,0.00,,,0.09,WUHU21636XXSP,2013-06-04 21:00:00,
2013-06-04 23:05:00,55.0,51.5,30.11,WNW,293,4.5,4.5,88,0.00,,,0.09,WUHU21636XXSP,2013-06-04 21:05:00,
2013-06-04 23:10:00,55.2,51.7,30.12,WNW,293,3.8,4.5,88,0.00,,,0.09,WUHU21636XXSP,2013-06-04 21:10:00,
2013-06-04 23:15:00,55.2,51.7,30.12,WNW,293,2.0,4.5,88,0.00,,,0.09,WUHU21636XXSP,2013-06-04 21:15:00,
2013-06-04 23:20:00,55.2,51.7,30.12,WNW,293,2.0,3.8,88,0.00,,,0.09,WUHU21636XXSP,2013-06-04 21:20:00,
2013-06-04 23:25:00,55.2,51.7,30.12,NW,315,2.9,2.9,88,0.00,,,0.09,WUHU21636XXSP,2013-06-04 21:25:00,
2013-06-04 23:30:00,55.2,51.7,30.12,WNW,293,2.5,2.9,88,0.00,,,0.09,WUHU21636XXSP,2013-06-04 21:30:00,
2013-06-04 23:35:00,55.0,51.5,30.12,WNW,293,0.0,2.9,88,0.00,,,0.09,WUHU21636XXSP,2013-06-04 21:35:00,
2013-06-04 23:40:00,55.0,51.5,30.12,WNW,293,1.8,2.5,88,0.00,,,0.09,WUHU21636XXSP,2013-06-04 21:40:00,
2013-06-04 23:45:00,55.0,51.5,30.12,WNW,293,0.0,1.8,88,0.00,,,0.09,WUHU21636XXSP,2013-06-04 21:45:00,
2013-06-04 23:50:00,54.9,51.4,30.12,WNW,293,2.2,2.2,88,0.00,,,0.09,WUHU21636XXSP,2013-06-04 21:50:00,
2013-06-04 23:55:00,54.7,51.2,30.12,WNW,293,1.8,2.2,88,0.00,,,0.09,WUHU21636XXSP,2013-06-04 21:55:00,